{"data":{"norad_id":48786,"intl_designator":"2021-045V","name":"ONEWEB-0246","alt_names":[],"object_type":"PAYLOAD","status":"ACTIVE","operator":null,"country":"UK","launch_date":"2021-05-28","launch_site_code":"VOSTO","launch_vehicle":null,"mission":null,"orbit_class":"UNKNOWN","rcs_meters":null,"size_class":null,"mass_kg":null,"dimensions":null,"purposes":["comms"],"wikipedia_slug":null,"has_3d_model":false,"image_url":null,"decayed_at":null,"tle_current":{"epoch":"2026-09-20T04:09:09.037728Z","epoch_age_seconds":46446,"freshness":"FRESH","line1":"1 48786U 21045V   26263.17302127  .00000129  00000+0  30984-3 0  9995","line2":"2 48786  87.8996 240.2546 0002054  81.4596 278.6766 13.15547763256769","mean_motion":13.15547763,"eccentricity":0.0002054,"inclination_deg":87.8996,"raan_deg":240.2546,"arg_perigee_deg":81.4596,"mean_anomaly_deg":278.6766,"bstar":0.00030984,"rev_number":25676,"period_min":109.46010783494,"perigee_km":1200.2168768031,"apogee_km":1203.3307041559,"semimajor_km":7579.9107904795,"source":"CELESTRAK","updated_at":"2026-09-20T09:00:44.619230Z"}}}